Keps
Threads by month
- ----- 2024 -----
- September
- August
- July
- June
- May
- April
- March
- February
- January
- ----- 2023 -----
- December
- November
- October
- September
- August
- July
- June
- May
- April
- March
- February
- January
- ----- 2022 -----
- December
- November
- October
- September
- August
- July
- June
- May
- April
- March
- February
- January
- ----- 2021 -----
- December
- November
- October
- September
- August
- July
- June
- May
- April
- March
- February
- January
- ----- 2020 -----
- December
- November
- October
- September
- August
- July
- June
- May
- April
- March
- February
- January
- ----- 2019 -----
- December
- November
- October
- September
- August
- July
- June
- May
- April
- March
- February
- January
- ----- 2018 -----
- December
- November
- October
- September
- August
- July
- June
- May
- April
- March
- February
- January
- ----- 2017 -----
- December
- November
- October
- September
- August
- July
- June
- May
- April
- March
- February
- January
- ----- 2016 -----
- December
- November
- October
- September
- August
- July
- June
- May
- April
- March
- February
- January
- ----- 2015 -----
- December
- November
- October
- September
- August
- July
- June
- May
- April
- March
- February
- January
- ----- 2014 -----
- December
- November
- October
- September
- August
- July
- June
- May
- April
- March
- February
- January
- ----- 2013 -----
- December
- November
- October
- September
- August
- July
- June
- May
- April
- March
- February
- January
- ----- 2012 -----
- December
- November
- October
- September
- August
- July
- June
- May
- April
- March
- February
- January
- ----- 2011 -----
- December
- November
- October
- September
- August
- July
- June
- May
- April
- March
- February
- January
- ----- 2010 -----
- December
- November
- October
- September
- August
- July
- June
- May
- April
- March
- February
- January
- ----- 2009 -----
- December
- November
- October
- September
- August
- July
- June
- May
- April
- March
- February
- January
- ----- 2008 -----
- December
- November
- October
- September
- August
- July
- June
- May
- April
- March
- February
- January
- ----- 2007 -----
- December
- November
- October
- September
- August
- July
- June
- May
- April
- March
- February
- January
- ----- 2006 -----
- December
- November
- October
- September
July 2012
- 1 participants
- 11 discussions
TACSAT-3 Catalog # 35001 has de-orbited and has been removed from the AMSAT
KEP distribution.
1
0
SB KEPS @ AMSAT $ORB12208.N
2Line Orbital Elements 12208.AMSAT
HR AMSAT ORBITAL ELEMENTS FOR AMATEUR SATELLITES IN NASA FORMAT
FROM WA5QGD FORT WORTH,TX July 26, 2012
Send SUBSCRIBE KEPS/UNSUBSCRIBE KEPS to majordomo(a)amsat.org only
BID: ORB12208.N
DECODE 2-LINE ELSETS WITH THE FOLLOWING KEY:
1 AAAAAU 00 0 0 BBBBB.BBBBBBBB .CCCCCCCC 00000-0 00000-0 0 DDDZ
2 AAAAA EEE.EEEE FFF.FFFF GGGGGGG HHH.HHHH III.IIII JJ.JJJJJJJJKKKKKZ
KEY: A-CATALOGNUM B-EPOCHTIME C-DECAY D-ELSETNUM E-INCLINATION F-RAAN
G-ECCENTRICITY H-ARGPERIGEE I-MNANOM J-MNMOTION K-ORBITNUM Z-CHECKSUM
TO ALL RADIO AMATEURS BT
AO-07
1 07530U 74089B 12208.64905719 -.00000027 00000-0 10000-3 0 4402
2 07530 101.4042 204.3389 0011626 204.3548 155.6967 12.53590375724990
FO-29
1 24278U 96046B 12207.93428118 .00000060 00000-0 10053-3 0 09028
2 24278 098.5864 303.5224 0349825 289.1213 067.2359 13.52985853787194
SO-33
1 25509U 98061B 12207.76802549 .00000342 00000-0 54217-4 0 2847
2 25509 031.4319 115.3576 0352673 181.0273 178.9645 14.28793799718173
RS-22
1 27939U 03042A 12208.77368794 .00000186 00000-0 43951-4 0 5732
2 27939 097.8099 047.5547 0014170 136.2963 223.9364 14.64074380471670
VO-52
1 28650U 05017B 12208.86290994 .00000812 00000-0 10551-3 0 1644
2 28650 097.5956 237.8758 0025011 271.0037 088.8323 14.83062410390859
HO-68
1 36122U 09072B 12208.73929346 -.00000044 00000-0 00000 0 0 6814
2 36122 100.3584 267.2836 0007665 021.6889 338.4551 13.16296980125595
UO-11
1 14781U 84021B 12207.98312660 -.00000231 00000-0 -23345-4 0 09431
2 14781 097.9491 267.1594 0007803 267.7814 092.2496 14.80497846525677
AO-16
1 20439U 90005D 12207.79511478 .00000038 00000-0 30131-4 0 05265
2 20439 098.4329 150.0920 0011853 047.0500 313.1680 14.32067927175529
LO-19
1 20442U 90005G 12207.95197956 .00000037 00000-0 29436-4 0 04611
2 20442 098.3975 153.1152 0012593 038.8336 321.3748 14.32285518175734
AO-27
1 22825U 93061C 12207.81370935 .00000091 00000-0 52686-4 0 01663
2 22825 098.5759 150.0302 0008479 160.6981 199.4526 14.29472878981998
IO-26
1 22826U 93061D 12208.85691627 .00000017 00000-0 23615-4 0 9108
2 22826 098.5701 151.4185 0009149 151.8815 208.2861 14.29747471982270
GO-32
1 25397U 98043D 12208.90635511 .00000093 00000-0 59169-4 0 8336
2 25397 098.3666 185.6666 0001547 127.8935 232.2413 14.23284457729674
NO-44
1 26931U 01043C 12208.56293845 -.00000010 00000-0 28134-4 0 977
2 26931 067.0521 018.8554 0007298 256.9331 103.0990 14.29814223564878
SO-50
1 27607U 02058C 12207.34037483 .00000116 00000-0 39058-4 0 08223
2 27607 064.5567 178.8329 0080934 241.0030 118.2944 14.72438309515583
CO-55
1 27844U 03031E 12207.57726648 .00000099 00000-0 65891-4 0 04265
2 27844 098.7023 215.3975 0010510 108.9560 251.2742 14.21045972470340
CO-57
1 27848U 03031J 12207.58765737 .00000109 00000-0 70802-4 0 03766
2 27848 098.7118 214.7591 0010494 113.0470 247.1797 14.20795256470287
AO-51
1 28375U 04025K 12207.47953152 .00000170 00000-0 63870-4 0 03264
2 28375 098.1509 170.9804 0083125 285.7675 073.4357 14.40969487424288
CP3
1 31129U 07012N 12207.57469515 .00000385 00000-0 97369-4 0 02223
2 31129 097.8822 213.0921 0101188 004.5589 355.6495 14.53135615279551
CO-65
1 32785U 08021C 12207.83764403 .00000168 00000-0 27028-4 0 3692
2 32785 097.7982 267.9726 0013341 297.6242 062.3622 14.83067697229490
PRISM
1 33493U 09002B 12208.90778103 .00001152 00000-0 14464-3 0 9172
2 33493 098.1761 350.4313 0019122 164.4684 195.7136 14.84053337189641
SOHLA-1
1 33496U 09002E 12207.97171887 .00000165 00000-0 35775-4 0 07919
2 33496 098.1083 319.4580 0005511 279.9364 080.1222 14.70000862187940
SO-67
1 35870U 09049F 12208.90330547 .00001967 00000-0 83800-4 0 1751
2 35870 097.2299 243.2557 0003537 057.5651 024.8417 15.24096472158660
TISAT-1
1 36799U 10035E 12208.77040684 .00000750 00000-0 10114-3 0 1930
2 36799 098.0601 285.3940 0015916 048.5404 311.7169 14.82073416110352
STUDSAT
1 36801U 10035G 12207.89686122 .00001928 00000-0 23444-3 0 04514
2 36801 098.0675 285.4049 0013359 037.9728 322.2395 14.84626445110264
FO-69
1 37227U 0 12179.46825757 .00000166 00000-0 31335-4 0 02192
2 37227 071.9703 289.2712 0018108 298.3339 061.6016 14.77092260037611
FO-70
1 37380U 0 12179.47554455 .00000208 00000-0 37493-4 0 02230
2 37380 071.9743 289.8278 0018623 295.0880 064.8372 14.76843679037500
ALMASAT-1
1 38078U 12006B 12208.56629556 .00011891 00000-0 32916-3 0 4193
2 38078 069.4856 227.9830 0754158 199.4978 157.5844 14.10422492 23103
XATCOBEO
1 38082U 12006F 12208.49366404 .00026829 00000-0 64798-3 0 4279
2 38082 069.4849 225.2324 0726006 198.0895 159.3082 14.19036635 23162
NOAA-10
1 16969U 86073A 12207.70947473 -.00000088 00000-0 -18062-4 0 00077
2 16969 098.5786 236.0753 0013005 119.9852 240.2603 14.27564794345363
NOAA-11
1 19531U 88089A 12207.75372370 -.00000231 00000-0 -97121-4 0 00025
2 19531 098.7320 292.1014 0011889 112.1381 248.1060 14.14973335229962
NOAA-12
1 21263U 91032A 12207.93284417 .00000028 00000-0 30635-4 0 05064
2 21263 098.7274 229.4135 0014854 088.6173 271.6708 14.25508391102073
MET-3/5
1 21655U 91056A 12208.42438597 .00000300 00000-0 74725-3 0 4654
2 21655 082.5582 124.4748 0012612 220.2654 139.7535 13.17035820 7059
MET-2/21
1 22782U 93055A 12207.84298499 -.00000007 00000-0 -20195-4 0 4814
2 22782 082.5481 001.8362 0023617 047.2106 313.1051 13.83685187954518
OKEAN-4
1 23317U 94066A 12207.94141960 .00000367 00000-0 41267-4 0 09863
2 23317 082.5397 354.9669 0020100 220.7751 139.1958 14.83856990960555
NOAA-14
1 23455U 94089A 12208.60499465 .00000030 00000-0 15701-4 0 9671
2 23455 098.8262 291.6075 0008931 197.9053 162.2279 14.13864370906439
NOAA-15
1 25338U 98030A 12207.67266560 -.00000062 00000-0 -77438-5 0 03450
2 25338 098.6924 194.2228 0010779 002.4617 357.6592 14.25096788738334
RESURS
1 25394U 98043A 12207.96923285 -.00000009 00000-0 13706-4 0 01626
2 25394 098.3229 194.1700 0002203 104.5210 255.6215 14.24290829729926
FENGYUN1
1 25730U 99025A 12208.89192176 .00000265 00000-0 17600-3 0 6579
2 25730 098.8471 167.1882 0017530 251.9527 107.9733 14.09674389680203
OKEAN-0
1 25860U 99039A 12207.94817543 .00000171 00000-0 33334-4 0 07081
2 25860 097.9382 169.8063 0001712 090.7109 269.4296 14.74247266700289
NOAA-16
1 26536U 00055A 12207.63571928 -.00000241 00000-0 -10469-3 0 08334
2 26536 099.0910 250.3479 0010188 339.9808 020.0963 14.12760551610469
NOAA-17
1 27453U 02032A 12207.72625895 .00000049 00000-0 38868-4 0 07813
2 27453 098.3344 232.8136 0012419 047.6756 312.5453 14.24461777524244
NOAA-18
1 28654U 05018A 12207.76472236 -.00000041 00000-0 23419-5 0 02632
2 28654 099.0486 166.1796 0015248 048.0189 312.2271 14.11676371370004
NOAA-19
1 33591U 09005A 12207.78120721 -.00000096 00000-0 -28772-4 0 04526
2 33591 098.8650 147.0945 0013136 273.7325 086.2339 14.11363021178450
HUBBLE
1 20580U 90037B 12207.24947860 .00000660 00000-0 35872-4 0 415
2 20580 028.4705 254.4395 0003502 108.6935 251.4009 15.02639521 20464
ISS
1 25544U 98067A 12208.95090278 .00005298 00000-0 85354-4 0 32
2 25544 051.6430 283.6980 0000704 335.9577 013.1873 15.54728434784192
CO-58
1 28895U 05043F 12207.58168892 .00000336 00000-0 77991-4 0 02366
2 28895 097.9071 072.1572 0018391 034.5341 325.7076 14.60684301359261
FALCON
1 30776U 07006E 12207.92849038 .00001779 00000-0 11663-3 0 04091
2 30776 035.4326 040.1610 0003962 350.3235 009.7405 15.07798400296105
MAST
1 31126U 07012K 12207.96152627 .00000278 00000-0 72352-4 0 05281
2 31126 097.8747 216.7945 0093775 350.5734 009.3700 14.54205958279908
